Year,Month,Day,Hour,Minute,Value (Times are PST for temperature in C)
2009,05,24,00,00,10.30
2009,05,24,00,01,10.30
2009,05,24,00,02,10.20
2009,05,24,00,03,10.20
2009,05,24,00,04,10.20
2009,05,24,00,05,10.20
2009,05,24,00,06,10.20
2009,05,24,00,07,10.20
2009,05,24,00,08,10.20
2009,05,24,00,09,10.20
2009,05,24,00,10,10.20
2009,05,24,00,11,10.20
2009,05,24,00,12,10.20
2009,05,24,00,18,10.10
2009,05,24,00,19,10.10
2009,05,24,00,20,10.10
2009,05,24,00,21,10.00
2009,05,24,00,22,10.00
2009,05,24,00,23,10.00
2009,05,24,00,24,10.00
2009,05,24,00,25,10.00
2009,05,24,00,26,10.00
2009,05,24,00,27,10.00
2009,05,24,00,28,10.00
2009,05,24,00,29,10.00
2009,05,24,00,30,9.90
2009,05,24,00,31,9.90
2009,05,24,00,32,9.90
2009,05,24,00,33,9.90
2009,05,24,00,34,9.90
2009,05,24,00,35,9.90
2009,05,24,00,36,9.90
2009,05,24,00,37,9.90
2009,05,24,00,38,9.90
2009,05,24,00,39,9.90
2009,05,24,00,40,9.90
2009,05,24,00,41,9.90
2009,05,24,00,42,9.90
2009,05,24,00,43,9.90
2009,05,24,00,44,9.90
2009,05,24,00,45,9.90
2009,05,24,00,46,10.00
2009,05,24,00,47,10.10
2009,05,24,00,48,10.10
2009,05,24,00,49,10.20
2009,05,24,00,50,10.20
2009,05,24,00,51,10.20
2009,05,24,00,52,10.20
2009,05,24,00,53,10.10
2009,05,24,00,54,10.10
2009,05,24,00,55,10.00
2009,05,24,00,56,10.00
2009,05,24,00,57,10.00
2009,05,24,00,58,9.90
2009,05,24,00,59,9.90
2009,05,24,01,00,9.90
2009,05,24,01,01,9.90
2009,05,24,01,02,9.90
2009,05,24,01,03,9.80
2009,05,24,01,04,9.80
2009,05,24,01,05,9.80
2009,05,24,01,06,9.80
2009,05,24,01,07,9.80
2009,05,24,01,08,9.80
2009,05,24,01,09,9.80
2009,05,24,01,10,9.80
2009,05,24,01,11,9.70
2009,05,24,01,12,9.70
2009,05,24,01,13,9.70
2009,05,24,01,14,9.70
2009,05,24,01,15,9.60
2009,05,24,01,16,9.60
2009,05,24,01,17,9.60
2009,05,24,01,18,9.60
2009,05,24,01,19,9.60
2009,05,24,01,20,9.60
2009,05,24,01,21,9.60
2009,05,24,01,22,9.60
2009,05,24,01,23,9.60
2009,05,24,01,24,9.60
2009,05,24,01,25,9.60
2009,05,24,01,26,9.60
2009,05,24,01,27,9.60
2009,05,24,01,28,9.60
2009,05,24,01,29,9.60
2009,05,24,01,30,9.60
2009,05,24,01,31,9.60
2009,05,24,01,32,9.60
2009,05,24,01,33,9.60
2009,05,24,01,34,9.60
2009,05,24,01,35,9.60
2009,05,24,01,36,9.60
2009,05,24,01,37,9.60
2009,05,24,01,38,9.60
2009,05,24,01,39,9.60
2009,05,24,01,40,9.60
2009,05,24,01,41,9.60
2009,05,24,01,42,9.60
2009,05,24,01,43,9.70
2009,05,24,01,44,9.70
2009,05,24,01,45,9.70
2009,05,24,01,46,9.70
2009,05,24,01,47,9.70
2009,05,24,01,48,9.70
2009,05,24,01,49,9.70
2009,05,24,01,50,9.70
2009,05,24,01,51,9.80
2009,05,24,01,52,9.80
2009,05,24,01,53,9.80
2009,05,24,01,54,9.80
2009,05,24,01,55,9.80
2009,05,24,01,56,9.80
2009,05,24,01,57,9.80
2009,05,24,01,58,9.80
2009,05,24,01,59,9.80
2009,05,24,02,00,9.90
2009,05,24,02,01,9.90
2009,05,24,02,02,9.90
2009,05,24,02,03,10.00
2009,05,24,02,04,10.00
2009,05,24,02,05,10.10
2009,05,24,02,06,10.10
2009,05,24,02,07,10.10
2009,05,24,02,08,10.10
2009,05,24,02,09,10.10
2009,05,24,02,10,10.10
2009,05,24,02,11,10.10
2009,05,24,02,12,10.20
2009,05,24,02,13,10.20
2009,05,24,02,14,10.20
2009,05,24,02,15,10.20
2009,05,24,02,16,10.20
2009,05,24,02,17,10.20
2009,05,24,02,18,10.20
2009,05,24,02,19,10.20
2009,05,24,02,20,10.20
2009,05,24,02,21,10.20
2009,05,24,02,22,10.20
2009,05,24,02,23,10.20
2009,05,24,02,24,10.20
2009,05,24,02,25,10.20
2009,05,24,02,26,10.10
2009,05,24,02,27,10.10
2009,05,24,02,28,10.10
2009,05,24,02,29,10.10
2009,05,24,02,30,10.10
2009,05,24,02,31,10.10
2009,05,24,02,32,10.10
2009,05,24,02,33,10.00
2009,05,24,02,34,10.00
2009,05,24,02,35,10.00
2009,05,24,02,36,9.90
2009,05,24,02,37,9.90
2009,05,24,02,38,9.90
2009,05,24,02,39,9.90
2009,05,24,02,40,9.90
2009,05,24,02,41,9.90
2009,05,24,02,42,9.80
2009,05,24,02,43,9.80
2009,05,24,02,44,9.80
2009,05,24,02,45,9.80
2009,05,24,02,46,9.80
2009,05,24,02,47,9.80
2009,05,24,02,48,9.70
2009,05,24,02,49,9.70
2009,05,24,02,50,9.70
2009,05,24,02,51,9.70
2009,05,24,02,52,9.70
2009,05,24,02,53,9.70
2009,05,24,02,54,9.70
2009,05,24,02,55,9.70
2009,05,24,02,56,9.70
2009,05,24,02,57,9.70
2009,05,24,02,58,9.70
2009,05,24,02,59,9.60
2009,05,24,03,00,9.60
2009,05,24,03,01,9.60
2009,05,24,03,02,9.70
2009,05,24,03,03,9.70
2009,05,24,03,04,9.70
2009,05,24,03,05,9.70
2009,05,24,03,06,9.70
2009,05,24,03,07,9.70
2009,05,24,03,08,9.70
2009,05,24,03,09,9.70
2009,05,24,03,10,9.70
2009,05,24,03,11,9.70
2009,05,24,03,12,9.70
2009,05,24,03,13,9.70
2009,05,24,03,14,9.70
2009,05,24,03,15,9.70
2009,05,24,03,16,9.70
2009,05,24,03,17,9.70
2009,05,24,03,18,9.70
2009,05,24,03,19,9.60
2009,05,24,03,20,9.60
2009,05,24,03,21,9.60
2009,05,24,03,22,9.60
2009,05,24,03,23,9.60
2009,05,24,03,24,9.60
2009,05,24,03,25,9.60
2009,05,24,03,26,9.50
2009,05,24,03,27,9.30
2009,05,24,03,28,9.30
2009,05,24,03,29,9.20
2009,05,24,03,30,9.10
2009,05,24,03,31,9.10
2009,05,24,03,32,9.00
2009,05,24,03,33,8.90
2009,05,24,03,34,8.80
2009,05,24,03,35,8.80
2009,05,24,03,36,8.70
2009,05,24,03,37,8.60
2009,05,24,03,38,8.60
2009,05,24,03,39,8.50
2009,05,24,03,40,8.50
2009,05,24,03,41,8.40
2009,05,24,03,42,8.40
2009,05,24,03,43,8.30
2009,05,24,03,44,8.30
2009,05,24,03,45,8.30
2009,05,24,03,46,8.20
2009,05,24,03,47,8.20
2009,05,24,03,48,8.20
2009,05,24,03,49,8.10
2009,05,24,03,50,8.10
2009,05,24,03,51,8.10
2009,05,24,03,52,8.00
2009,05,24,03,53,7.90
2009,05,24,03,54,7.90
2009,05,24,03,55,7.80
2009,05,24,03,56,7.80
2009,05,24,03,57,7.70
2009,05,24,03,58,7.70
2009,05,24,03,59,7.60
2009,05,24,04,00,7.60
2009,05,24,04,01,7.60
2009,05,24,04,02,7.50
2009,05,24,04,03,7.50
2009,05,24,04,04,7.50
2009,05,24,04,05,7.50
2009,05,24,04,06,7.40
2009,05,24,04,07,7.40
2009,05,24,04,08,7.40
2009,05,24,04,09,7.40
2009,05,24,04,10,7.30
2009,05,24,04,11,7.30
2009,05,24,04,12,7.30
2009,05,24,04,13,7.30
2009,05,24,04,14,7.30
2009,05,24,04,15,7.30
2009,05,24,04,16,7.30
2009,05,24,04,17,7.20
2009,05,24,04,18,7.20
2009,05,24,04,19,7.20
2009,05,24,04,20,7.20
2009,05,24,04,21,7.20
2009,05,24,04,22,7.20
2009,05,24,04,23,7.20
2009,05,24,04,24,7.20
2009,05,24,04,25,7.10
2009,05,24,04,26,7.10
2009,05,24,04,27,7.10
2009,05,24,04,28,7.10
2009,05,24,04,29,7.00
2009,05,24,04,30,7.00
2009,05,24,04,31,7.00
2009,05,24,04,32,6.90
2009,05,24,04,33,6.90
2009,05,24,04,34,6.90
2009,05,24,04,35,6.90
2009,05,24,04,36,6.90
2009,05,24,04,37,6.90
2009,05,24,04,38,6.90
2009,05,24,04,39,6.90
2009,05,24,04,40,6.90
2009,05,24,04,41,6.90
2009,05,24,04,42,6.80
2009,05,24,04,43,6.80
2009,05,24,04,44,6.80
2009,05,24,04,45,6.80
2009,05,24,04,46,6.80
2009,05,24,04,47,6.80
2009,05,24,04,48,6.80
2009,05,24,04,49,6.80
2009,05,24,04,50,6.80
2009,05,24,04,51,6.80
2009,05,24,04,52,6.70
2009,05,24,04,53,6.70
2009,05,24,04,54,6.70
2009,05,24,04,55,6.70
2009,05,24,04,56,6.70
2009,05,24,04,57,6.70
2009,05,24,04,58,6.70
2009,05,24,04,59,6.70
2009,05,24,05,00,6.60
2009,05,24,05,01,6.60
2009,05,24,05,02,6.60
2009,05,24,05,03,6.60
2009,05,24,05,04,6.60
2009,05,24,05,05,6.50
2009,05,24,05,06,6.50
2009,05,24,05,07,6.50
2009,05,24,05,08,6.40
2009,05,24,05,09,6.40
2009,05,24,05,10,6.40
2009,05,24,05,11,6.40
2009,05,24,05,12,6.40
2009,05,24,05,13,6.40
2009,05,24,05,14,6.40
2009,05,24,05,15,6.30
2009,05,24,05,16,6.30
2009,05,24,05,17,6.30
2009,05,24,05,18,6.30
2009,05,24,05,19,6.30
2009,05,24,05,20,6.30
2009,05,24,05,21,6.30
2009,05,24,05,22,6.20
2009,05,24,05,23,6.20
2009,05,24,05,24,6.20
2009,05,24,05,25,6.20
2009,05,24,05,26,6.20
2009,05,24,05,27,6.20
2009,05,24,05,28,6.20
2009,05,24,05,29,6.10
2009,05,24,05,30,6.10
2009,05,24,05,31,6.10
2009,05,24,05,32,6.10
2009,05,24,05,33,6.10
2009,05,24,05,34,6.10
2009,05,24,05,35,6.20
2009,05,24,05,36,6.20
2009,05,24,05,37,6.20
2009,05,24,05,38,6.20
2009,05,24,05,39,6.20
2009,05,24,05,40,6.20
2009,05,24,05,41,6.20
2009,05,24,05,42,6.10
2009,05,24,05,43,6.10
2009,05,24,05,44,6.10
2009,05,24,05,45,6.10
2009,05,24,05,46,6.10
2009,05,24,05,47,6.10
2009,05,24,05,48,6.10
2009,05,24,05,49,6.10
2009,05,24,05,50,6.10
2009,05,24,05,51,6.10
2009,05,24,05,52,6.10
2009,05,24,05,53,6.20
2009,05,24,05,54,6.20
2009,05,24,05,55,6.20
2009,05,24,05,56,6.20
2009,05,24,05,57,6.20
2009,05,24,05,58,6.20
2009,05,24,05,59,6.20
2009,05,24,06,00,6.20
2009,05,24,06,01,6.30
2009,05,24,06,02,6.30
2009,05,24,06,03,6.30
2009,05,24,06,04,6.30
2009,05,24,06,05,6.40
2009,05,24,06,06,6.40
2009,05,24,06,07,6.40
2009,05,24,06,08,6.40
2009,05,24,06,09,6.40
2009,05,24,06,10,6.40
2009,05,24,06,11,6.40
2009,05,24,06,12,6.40
2009,05,24,06,13,6.40
2009,05,24,06,14,6.40
2009,05,24,06,15,6.40
2009,05,24,06,16,6.40
2009,05,24,06,17,6.40
2009,05,24,06,18,6.40
2009,05,24,06,19,6.40
2009,05,24,06,20,6.40
2009,05,24,06,21,6.40
2009,05,24,06,22,6.40
2009,05,24,06,23,6.40
2009,05,24,06,24,6.40
2009,05,24,06,25,6.40
2009,05,24,06,26,6.40
2009,05,24,06,27,6.40
2009,05,24,06,28,6.50
2009,05,24,06,29,6.50
2009,05,24,06,30,6.60
2009,05,24,06,31,6.60
2009,05,24,06,32,6.60
2009,05,24,06,33,6.60
2009,05,24,06,34,6.60
2009,05,24,06,35,6.60
2009,05,24,06,36,6.60
2009,05,24,06,37,6.60
2009,05,24,06,38,6.70
2009,05,24,06,39,6.70
2009,05,24,06,40,6.70
2009,05,24,06,41,6.70
2009,05,24,06,42,6.70
2009,05,24,06,43,6.70
2009,05,24,06,44,6.80
2009,05,24,06,45,6.80
2009,05,24,06,46,6.80
2009,05,24,06,47,6.90
2009,05,24,06,48,6.90
2009,05,24,06,49,7.00
2009,05,24,06,50,7.00
2009,05,24,06,51,7.10
2009,05,24,06,52,7.10
2009,05,24,06,53,7.20
2009,05,24,06,54,7.20
2009,05,24,06,55,7.20
2009,05,24,06,56,7.30
2009,05,24,06,57,7.30
2009,05,24,06,58,7.30
2009,05,24,06,59,7.40
2009,05,24,07,00,7.40
2009,05,24,07,01,7.50
2009,05,24,07,02,7.60
2009,05,24,07,03,7.60
2009,05,24,07,04,7.70
2009,05,24,07,05,7.80
2009,05,24,07,06,7.80
2009,05,24,07,07,7.90
2009,05,24,07,08,7.90
2009,05,24,07,09,8.00
2009,05,24,07,10,8.10
2009,05,24,07,11,8.10
2009,05,24,07,12,8.20
2009,05,24,07,13,8.20
2009,05,24,07,14,8.30
2009,05,24,07,15,8.40
2009,05,24,07,16,8.50
2009,05,24,07,17,8.60
2009,05,24,07,18,8.70
2009,05,24,07,19,8.80
2009,05,24,07,20,8.90
2009,05,24,07,21,9.00
2009,05,24,07,22,9.10
2009,05,24,07,23,9.20
2009,05,24,07,24,9.30
2009,05,24,07,25,9.40
2009,05,24,07,26,9.50
2009,05,24,07,27,9.60
2009,05,24,07,28,9.60
2009,05,24,07,29,9.70
2009,05,24,07,30,9.80
2009,05,24,07,31,9.90
2009,05,24,07,32,10.00
2009,05,24,07,33,10.10
2009,05,24,07,34,10.10
2009,05,24,07,35,10.20
2009,05,24,07,36,10.30
2009,05,24,07,37,10.40
2009,05,24,07,38,10.50
2009,05,24,07,39,10.60
2009,05,24,07,40,10.70
2009,05,24,07,41,10.80
2009,05,24,07,42,10.80
2009,05,24,07,43,11.00
2009,05,24,07,44,11.10
2009,05,24,07,45,11.10
2009,05,24,07,46,11.20
2009,05,24,07,47,11.30
2009,05,24,07,48,11.40
2009,05,24,07,49,11.50
2009,05,24,07,50,11.60
2009,05,24,07,51,11.80
2009,05,24,07,52,11.80
2009,05,24,07,53,12.00
2009,05,24,07,54,12.10
2009,05,24,07,55,12.20
2009,05,24,07,56,12.40
2009,05,24,07,57,12.50
2009,05,24,07,58,12.50
2009,05,24,07,59,12.70
2009,05,24,08,00,12.70
2009,05,24,08,01,12.70
2009,05,24,08,02,12.80
2009,05,24,08,03,12.80
2009,05,24,08,04,12.90
2009,05,24,08,05,12.90
2009,05,24,08,06,13.00
2009,05,24,08,07,13.10
2009,05,24,08,08,13.20
2009,05,24,08,09,13.20
2009,05,24,08,10,13.30
2009,05,24,08,11,13.40
2009,05,24,08,12,13.40
2009,05,24,08,13,13.40
2009,05,24,08,14,13.50
2009,05,24,08,15,13.60
2009,05,24,08,16,13.60
2009,05,24,08,17,13.70
2009,05,24,08,18,13.70
2009,05,24,08,19,13.70
2009,05,24,08,20,13.80
2009,05,24,08,21,13.80
2009,05,24,08,22,13.80
2009,05,24,08,23,13.90
2009,05,24,08,24,13.90
2009,05,24,08,25,14.00
2009,05,24,08,26,14.00
2009,05,24,08,27,14.10
2009,05,24,08,28,14.10
2009,05,24,08,29,14.10
2009,05,24,08,30,14.10
2009,05,24,08,31,14.20
2009,05,24,08,32,14.20
2009,05,24,08,33,14.30
2009,05,24,08,34,14.30
2009,05,24,08,35,14.40
2009,05,24,08,36,14.50
2009,05,24,08,37,14.50
2009,05,24,08,38,14.50
2009,05,24,08,39,14.60
2009,05,24,08,40,14.60
2009,05,24,08,41,14.60
2009,05,24,08,42,14.60
2009,05,24,08,43,14.70
2009,05,24,08,44,14.80
2009,05,24,08,45,14.90
2009,05,24,08,46,15.00
2009,05,24,08,47,15.00
2009,05,24,08,48,15.00
2009,05,24,08,49,15.00
2009,05,24,08,50,15.00
2009,05,24,08,51,15.00
2009,05,24,08,52,15.00
2009,05,24,08,53,15.00
2009,05,24,08,54,15.00
2009,05,24,08,55,15.10
2009,05,24,08,56,15.20
2009,05,24,08,57,15.30
2009,05,24,08,58,15.20
2009,05,24,08,59,15.20
2009,05,24,09,00,15.10
2009,05,24,09,01,15.10
2009,05,24,09,02,15.10
2009,05,24,09,03,15.20
2009,05,24,09,04,15.20
2009,05,24,09,05,15.30
2009,05,24,09,06,15.30
2009,05,24,09,07,15.30
2009,05,24,09,08,15.30
2009,05,24,09,09,15.30
2009,05,24,09,10,15.30
2009,05,24,09,11,15.40
2009,05,24,09,12,15.50
2009,05,24,09,13,15.60
2009,05,24,09,14,15.60
2009,05,24,09,15,15.50
2009,05,24,09,16,15.50
2009,05,24,09,17,15.60
2009,05,24,09,18,15.60
2009,05,24,09,19,15.60
2009,05,24,09,20,15.70
2009,05,24,09,21,15.70
2009,05,24,09,22,15.70
2009,05,24,09,23,15.60
2009,05,24,09,24,15.60
2009,05,24,09,25,15.60
2009,05,24,09,26,15.50
2009,05,24,09,27,15.40
2009,05,24,09,28,15.40
2009,05,24,09,29,15.40
2009,05,24,09,30,15.40
2009,05,24,09,31,15.40
2009,05,24,09,32,15.30
2009,05,24,09,33,15.40
2009,05,24,09,34,15.40
2009,05,24,09,35,15.30
2009,05,24,09,36,15.30
2009,05,24,09,37,15.30
2009,05,24,09,38,15.30
2009,05,24,09,39,15.30
2009,05,24,09,40,15.30
2009,05,24,09,41,15.30
2009,05,24,09,42,15.30
2009,05,24,09,43,15.30
2009,05,24,09,44,15.30
2009,05,24,09,45,15.20
2009,05,24,09,46,15.20
2009,05,24,09,47,15.20
2009,05,24,09,48,15.20
2009,05,24,09,49,15.30
2009,05,24,09,50,15.20
2009,05,24,09,51,15.10
2009,05,24,09,52,15.10
2009,05,24,09,53,15.10
2009,05,24,09,54,15.20
2009,05,24,09,55,15.10
2009,05,24,09,56,15.00
2009,05,24,09,57,15.00
2009,05,24,09,58,15.00
2009,05,24,09,59,15.00
2009,05,24,10,00,15.00
2009,05,24,10,01,15.00
2009,05,24,10,02,15.20
2009,05,24,10,03,15.40
2009,05,24,10,04,15.50
2009,05,24,10,05,15.60
2009,05,24,10,06,15.70
2009,05,24,10,07,15.70
2009,05,24,10,08,15.60
2009,05,24,10,09,15.60
2009,05,24,10,10,15.70
2009,05,24,10,11,15.70
2009,05,24,10,12,15.70
2009,05,24,10,13,15.70
2009,05,24,10,14,15.70
2009,05,24,10,15,15.80
2009,05,24,10,16,15.90
2009,05,24,10,17,15.90
2009,05,24,10,18,15.90
2009,05,24,10,19,15.80
2009,05,24,10,20,15.80
2009,05,24,10,21,15.70
2009,05,24,10,22,15.60
2009,05,24,10,23,15.60
2009,05,24,10,24,15.50
2009,05,24,10,25,15.40
2009,05,24,10,26,15.40
2009,05,24,10,27,15.40
2009,05,24,10,28,15.40
2009,05,24,10,29,15.40
2009,05,24,10,30,15.40
2009,05,24,10,31,15.30
2009,05,24,10,32,15.30
2009,05,24,10,33,15.40
2009,05,24,10,34,15.40
2009,05,24,10,35,15.50
2009,05,24,10,36,15.50
2009,05,24,10,37,15.40
2009,05,24,10,38,15.40
2009,05,24,10,39,15.50
2009,05,24,10,40,15.60
2009,05,24,10,41,15.60
2009,05,24,10,42,15.50
2009,05,24,10,43,15.50
2009,05,24,10,44,15.50
2009,05,24,10,45,15.60
2009,05,24,10,46,15.60
2009,05,24,10,47,15.50
2009,05,24,10,48,15.40
2009,05,24,10,49,15.40
2009,05,24,10,50,15.40
2009,05,24,10,51,15.40
2009,05,24,10,52,15.30
2009,05,24,10,53,15.40
2009,05,24,10,54,15.40
2009,05,24,10,55,15.50
2009,05,24,10,56,15.70
2009,05,24,10,57,15.80
2009,05,24,10,58,15.90
2009,05,24,10,59,16.00
2009,05,24,11,00,16.00
2009,05,24,11,01,16.10
2009,05,24,11,02,16.00
2009,05,24,11,03,15.90
2009,05,24,11,04,15.90
2009,05,24,11,05,16.00
2009,05,24,11,06,16.10
2009,05,24,11,07,16.10
2009,05,24,11,08,16.10
2009,05,24,11,09,16.20
2009,05,24,11,10,16.20
2009,05,24,11,11,16.10
2009,05,24,11,12,16.10
2009,05,24,11,13,16.10
2009,05,24,11,14,16.10
2009,05,24,11,15,16.20
2009,05,24,11,16,16.20
2009,05,24,11,17,16.30
2009,05,24,11,18,16.30
2009,05,24,11,19,16.40
2009,05,24,11,20,16.60
2009,05,24,11,21,16.60
2009,05,24,11,22,16.70
2009,05,24,11,23,16.80
2009,05,24,11,24,16.80
2009,05,24,11,25,16.60
2009,05,24,11,26,16.40
2009,05,24,11,27,16.40
2009,05,24,11,28,16.40
2009,05,24,11,29,16.40
2009,05,24,11,30,16.40
2009,05,24,11,31,16.40
2009,05,24,11,32,16.40
2009,05,24,11,33,16.40
2009,05,24,11,34,16.40
2009,05,24,11,35,16.40
2009,05,24,11,36,16.40
2009,05,24,11,37,16.40
2009,05,24,11,38,16.40
2009,05,24,11,39,16.50
2009,05,24,11,40,16.60
2009,05,24,11,41,16.80
2009,05,24,11,42,16.90
2009,05,24,11,43,16.90
2009,05,24,11,44,16.80
2009,05,24,11,45,16.70
2009,05,24,11,46,16.80
2009,05,24,11,47,16.80
2009,05,24,11,48,16.70
2009,05,24,11,49,16.70
2009,05,24,11,50,16.70
2009,05,24,11,51,16.80
2009,05,24,11,52,16.90
2009,05,24,11,53,16.80
2009,05,24,11,54,16.50
2009,05,24,11,55,16.30
2009,05,24,11,56,16.20
2009,05,24,11,57,16.20
2009,05,24,11,58,16.30
2009,05,24,11,59,16.20
2009,05,24,12,00,16.20
2009,05,24,12,01,16.20
2009,05,24,12,02,16.20
2009,05,24,12,03,16.30
2009,05,24,12,04,16.30
2009,05,24,12,05,16.30
2009,05,24,12,06,16.30
2009,05,24,12,07,16.30
2009,05,24,12,08,16.30
2009,05,24,12,09,16.40
2009,05,24,12,10,16.40
2009,05,24,12,11,16.40
2009,05,24,12,12,16.30
2009,05,24,12,13,16.20
2009,05,24,12,14,16.20
2009,05,24,12,15,16.10
2009,05,24,12,16,16.20
2009,05,24,12,17,16.20
2009,05,24,12,18,16.30
2009,05,24,12,19,16.40
2009,05,24,12,20,16.60
2009,05,24,12,21,16.80
2009,05,24,12,22,16.90
2009,05,24,12,23,16.80
2009,05,24,12,24,16.80
2009,05,24,12,25,16.60
2009,05,24,12,26,16.60
2009,05,24,12,27,16.50
2009,05,24,12,28,16.40
2009,05,24,12,29,16.50
2009,05,24,12,30,16.60
2009,05,24,12,31,16.60
2009,05,24,12,32,16.70
2009,05,24,12,33,16.70
2009,05,24,12,34,16.80
2009,05,24,12,35,17.00
2009,05,24,12,36,16.90
2009,05,24,12,37,16.90
2009,05,24,12,38,16.90
2009,05,24,12,39,16.90
2009,05,24,12,40,16.90
2009,05,24,12,41,16.90
2009,05,24,12,42,17.00
2009,05,24,12,43,17.10
2009,05,24,12,44,17.10
2009,05,24,12,45,17.10
2009,05,24,12,46,17.10
2009,05,24,12,47,17.10
2009,05,24,12,48,17.20
2009,05,24,12,49,17.30
2009,05,24,12,50,17.40
2009,05,24,12,51,17.60
2009,05,24,12,52,17.80
2009,05,24,12,53,17.90
2009,05,24,12,54,17.90
2009,05,24,12,55,17.90
2009,05,24,12,56,17.80
2009,05,24,12,57,17.70
2009,05,24,12,58,17.60
2009,05,24,12,59,17.50
2009,05,24,13,00,17.40
2009,05,24,13,01,17.30
2009,05,24,13,02,17.40
2009,05,24,13,03,17.50
2009,05,24,13,04,17.60
2009,05,24,13,05,17.70
2009,05,24,13,06,17.70
2009,05,24,13,07,17.70
2009,05,24,13,08,17.70
2009,05,24,13,09,17.80
2009,05,24,13,10,17.60
2009,05,24,13,11,17.50
2009,05,24,13,12,17.40
2009,05,24,13,13,17.40
2009,05,24,13,14,17.40
2009,05,24,13,15,17.50
2009,05,24,13,16,17.50
2009,05,24,13,17,17.50
2009,05,24,13,18,17.50
2009,05,24,13,19,17.50
2009,05,24,13,20,17.60
2009,05,24,13,21,17.60
2009,05,24,13,22,17.70
2009,05,24,13,23,17.70
2009,05,24,13,24,17.70
2009,05,24,13,25,17.70
2009,05,24,13,26,17.60
2009,05,24,13,27,17.60
2009,05,24,13,28,17.70
2009,05,24,13,29,17.80
2009,05,24,13,30,17.80
2009,05,24,13,31,17.70
2009,05,24,13,32,17.70
2009,05,24,13,33,17.70
2009,05,24,13,34,17.70
2009,05,24,13,35,17.80
2009,05,24,13,36,17.90
2009,05,24,13,37,17.90
2009,05,24,13,38,18.00
2009,05,24,13,39,18.00
2009,05,24,13,40,18.00
2009,05,24,13,41,17.80
2009,05,24,13,42,17.80
2009,05,24,13,43,17.90
2009,05,24,13,44,17.90
2009,05,24,13,45,17.80
2009,05,24,13,46,17.70
2009,05,24,13,47,17.80
2009,05,24,13,48,17.80
2009,05,24,13,49,17.70
2009,05,24,13,50,17.60
2009,05,24,13,51,17.70
2009,05,24,13,52,17.80
2009,05,24,13,53,17.80
2009,05,24,13,54,17.70
2009,05,24,13,55,17.60
2009,05,24,13,56,17.50
2009,05,24,13,57,17.60
2009,05,24,13,58,17.60
2009,05,24,13,59,17.60
2009,05,24,14,00,17.70
2009,05,24,14,01,17.60
2009,05,24,14,02,17.50
2009,05,24,14,03,17.40
2009,05,24,14,04,17.50
2009,05,24,14,05,17.50
2009,05,24,14,06,17.60
2009,05,24,14,07,17.60
2009,05,24,14,08,17.60
2009,05,24,14,09,17.60
2009,05,24,14,10,17.50
2009,05,24,14,11,17.50
2009,05,24,14,12,17.70
2009,05,24,14,13,17.80
2009,05,24,14,14,17.80
2009,05,24,14,15,17.80
2009,05,24,14,16,17.70
2009,05,24,14,17,17.60
2009,05,24,14,18,17.70
2009,05,24,14,19,17.80
2009,05,24,14,20,17.90
2009,05,24,14,21,17.90
2009,05,24,14,22,18.00
2009,05,24,14,23,18.00
2009,05,24,14,24,17.90
2009,05,24,14,25,17.90
2009,05,24,14,26,17.90
2009,05,24,14,27,18.00
2009,05,24,14,28,18.10
2009,05,24,14,29,18.20
2009,05,24,14,30,18.20
2009,05,24,14,31,18.10
2009,05,24,14,32,18.10
2009,05,24,14,33,18.20
2009,05,24,14,34,18.10
2009,05,24,14,35,18.10
2009,05,24,14,36,18.10
2009,05,24,14,37,18.10
2009,05,24,14,38,18.10
2009,05,24,14,39,18.20
2009,05,24,14,40,18.20
2009,05,24,14,41,18.20
2009,05,24,14,42,18.20
2009,05,24,14,43,18.30
2009,05,24,14,44,18.40
2009,05,24,14,45,18.40
2009,05,24,14,46,18.50
2009,05,24,14,47,18.50
2009,05,24,14,48,18.50
2009,05,24,14,49,18.60
2009,05,24,14,50,18.60
2009,05,24,14,51,18.70
2009,05,24,14,52,18.70
2009,05,24,14,53,18.70
2009,05,24,14,54,18.70
2009,05,24,14,55,18.60
2009,05,24,14,56,18.60
2009,05,24,14,57,18.70
2009,05,24,14,58,18.70
2009,05,24,14,59,18.70
2009,05,24,15,00,18.80
2009,05,24,15,01,18.90
2009,05,24,15,02,18.90
2009,05,24,15,03,18.90
2009,05,24,15,04,18.90
2009,05,24,15,05,19.00
2009,05,24,15,06,18.90
2009,05,24,15,07,19.00
2009,05,24,15,08,19.10
2009,05,24,15,09,19.00
2009,05,24,15,10,18.90
2009,05,24,15,11,18.90
2009,05,24,15,12,18.90
2009,05,24,15,13,19.00
2009,05,24,15,14,19.00
2009,05,24,15,15,18.90
2009,05,24,15,16,18.90
2009,05,24,15,17,19.10
2009,05,24,15,18,19.20
2009,05,24,15,19,19.20
2009,05,24,15,20,19.30
2009,05,24,15,21,19.40
2009,05,24,15,22,19.50
2009,05,24,15,23,19.60
2009,05,24,15,24,19.70
2009,05,24,15,25,19.70
2009,05,24,15,26,19.60
2009,05,24,15,27,19.50
2009,05,24,15,28,19.40
2009,05,24,15,29,19.30
2009,05,24,15,30,19.30
2009,05,24,15,31,19.30
2009,05,24,15,32,19.40
2009,05,24,15,33,19.40
2009,05,24,15,34,19.50
2009,05,24,15,35,19.50
2009,05,24,15,36,19.50
2009,05,24,15,37,19.30
2009,05,24,15,38,19.30
2009,05,24,15,39,19.20
2009,05,24,15,40,19.30
2009,05,24,15,41,19.40
2009,05,24,15,42,19.30
2009,05,24,15,43,19.30
2009,05,24,15,44,19.20
2009,05,24,15,45,19.30
2009,05,24,15,46,19.30
2009,05,24,15,47,19.20
2009,05,24,15,48,19.30
2009,05,24,15,49,19.30
2009,05,24,15,50,19.20
2009,05,24,15,51,19.30
2009,05,24,15,52,19.40
2009,05,24,15,53,19.50
2009,05,24,15,54,19.40
2009,05,24,15,55,19.30
2009,05,24,15,56,19.40
2009,05,24,15,57,19.40
2009,05,24,15,58,19.50
2009,05,24,15,59,19.60
2009,05,24,16,00,19.70
2009,05,24,16,01,19.70
2009,05,24,16,02,19.70
2009,05,24,16,03,19.60
2009,05,24,16,04,19.60
2009,05,24,16,05,19.70
2009,05,24,16,06,19.70
2009,05,24,16,07,19.50
2009,05,24,16,08,19.50
2009,05,24,16,09,19.50
2009,05,24,16,10,19.60
2009,05,24,16,11,19.70
2009,05,24,16,12,19.70
2009,05,24,16,13,19.70
2009,05,24,16,14,19.80
2009,05,24,16,15,19.90
2009,05,24,16,16,20.00
2009,05,24,16,17,19.90
2009,05,24,16,18,20.00
2009,05,24,16,19,20.10
2009,05,24,16,20,20.00
2009,05,24,16,21,19.90
2009,05,24,16,22,20.00
2009,05,24,16,23,20.00
2009,05,24,16,24,20.00
2009,05,24,16,25,20.00
2009,05,24,16,26,20.00
2009,05,24,16,27,20.00
2009,05,24,16,28,20.00
2009,05,24,16,29,20.00
2009,05,24,16,30,20.10
2009,05,24,16,31,20.10
2009,05,24,16,32,20.10
2009,05,24,16,33,20.20
2009,05,24,16,34,20.30
2009,05,24,16,35,20.30
2009,05,24,16,36,20.40
2009,05,24,16,37,20.30
2009,05,24,16,38,20.30
2009,05,24,16,39,20.30
2009,05,24,16,40,20.30
2009,05,24,16,41,20.30
2009,05,24,16,42,20.30
2009,05,24,16,43,20.30
2009,05,24,16,44,20.20
2009,05,24,16,45,20.20
2009,05,24,16,46,20.10
2009,05,24,16,47,20.20
2009,05,24,16,48,20.20
2009,05,24,16,49,20.30
2009,05,24,16,50,20.30
2009,05,24,16,51,20.30
2009,05,24,16,52,20.20
2009,05,24,16,53,20.20
2009,05,24,16,54,20.30
2009,05,24,16,55,20.40
2009,05,24,16,56,20.40
2009,05,24,16,57,20.40
2009,05,24,16,58,20.30
2009,05,24,16,59,20.20
2009,05,24,17,00,20.20
2009,05,24,17,01,20.20
2009,05,24,17,02,20.20
2009,05,24,17,03,20.30
2009,05,24,17,04,20.40
2009,05,24,17,05,20.40
2009,05,24,17,06,20.40
2009,05,24,17,07,20.30
2009,05,24,17,08,20.20
2009,05,24,17,09,20.20
2009,05,24,17,10,20.30
2009,05,24,17,11,20.30
2009,05,24,17,12,20.30
2009,05,24,17,13,20.40
2009,05,24,17,14,20.40
2009,05,24,17,15,20.40
2009,05,24,17,16,20.40
2009,05,24,17,17,20.40
2009,05,24,17,18,20.30
2009,05,24,17,19,20.20
2009,05,24,17,20,20.30
2009,05,24,17,21,20.30
2009,05,24,17,22,20.30
2009,05,24,17,23,20.30
2009,05,24,17,24,20.30
2009,05,24,17,25,20.30
2009,05,24,17,26,20.30
2009,05,24,17,27,20.20
2009,05,24,17,28,20.00
2009,05,24,17,29,19.80
2009,05,24,17,30,19.80
2009,05,24,17,31,19.80
2009,05,24,17,32,19.90
2009,05,24,17,33,19.90
2009,05,24,17,34,19.90
2009,05,24,17,35,19.90
2009,05,24,17,36,19.80
2009,05,24,17,37,19.80
2009,05,24,17,38,19.80
2009,05,24,17,39,19.70
2009,05,24,17,40,19.60